Location: Unspecified
(43.4680°N, 87.1740°E)
Time: 05:56:47
(UTC+00:00)

NOSS 0 Rocket - Visible Passes

Search period start: 29 July 2021 00:00
Search period end: 08 August 2021 00:00
Orbit: 934 x 956 km, 70.0° (Epoch: 28 July)

Date Brightness Start Highest point End Pass type
(mag) Time Alt. Az. Time Alt. Az. Time Alt. Az.
29 Jul 5.9 16:11:54 10° N 16:16:17 19° NE 16:20:09 12° E visible
29 Jul 3.8 17:57:23 10° NNW 18:03:39 89° ENE 18:04:06 78° SSE visible
29 Jul 5.8 19:45:58 10° WNW 19:48:05 14° W 19:48:05 14° W visible
30 Jul 5.4 16:27:42 10° N 16:32:59 28° NE 16:35:43 21° E visible
30 Jul 4.1 18:13:44 10° NNW 18:19:41 58° WSW 18:19:41 58° WSW visible
31 Jul 6.3 15:00:21 10° NNE 15:01:13 10° NNE 15:02:07 10° NE visible
31 Jul 4.7 16:43:39 10° NNW 16:49:33 42° NE 16:51:19 34° E visible
31 Jul 4.8 18:30:19 10° NW 18:35:17 35° W 18:35:17 35° W visible
01 Aug 6.1 15:14:47 10° N 15:18:11 15° NE 15:21:34 10° ENE visible
01 Aug 4.0 16:59:44 10° NNW 17:05:57 65° ENE 17:06:58 56° ESE visible
01 Aug 5.5 18:47:16 10° NW 18:50:56 21° W 18:50:56 21° W visible
02 Aug 5.7 15:30:21 10° N 15:35:00 21° NE 15:38:40 13° E visible
02 Aug 3.8 17:15:59 10° NNW 17:22:13 82° WSW 17:22:39 76° SSW visible
02 Aug 6.1 19:05:14 10° WNW 19:06:37 12° W 19:06:37 12° W visible
03 Aug 5.1 15:46:11 10° N 15:51:40 31° NE 15:54:23 22° E visible
03 Aug 4.3 17:32:23 10° NW 17:38:22 51° WSW 17:38:22 51° WSW visible
04 Aug 6.1 14:18:06 10° NNE 14:20:00 11° NNE 14:21:54 10° NE visible
04 Aug 4.5 16:02:10 10° NNW 16:08:10 47° ENE 16:10:08 36° ESE visible
04 Aug 5.0 17:49:02 10° NW 17:54:07 31° W 17:54:07 31° W visible
05 Aug 5.9 14:33:08 10° N 14:36:56 16° NE 14:40:41 10° ENE visible
05 Aug 3.9 16:18:18 10° NNW 16:24:33 73° ENE 16:25:55 54° SE visible
05 Aug 5.7 18:06:09 10° WNW 18:09:54 19° W 18:09:54 19° W visible
06 Aug 5.4 14:48:48 10° N 14:53:42 23° NE 14:57:45 13° E visible
06 Aug 3.9 16:34:34 10° NNW 16:40:48 73° WSW 16:41:44 61° SSW visible
06 Aug 6.2 18:25:03 10° W 18:25:44 10° W 18:25:44 10° W visible
07 Aug 4.9 15:04:41 10° NNW 15:10:19 34° NE 15:13:36 21° ESE visible
07 Aug 4.5 16:51:02 10° NW 16:56:54 45° WSW 16:57:36 43° SW visible
